Location: Home
(42.5358°N, 72.7383°W)
Time: 08:15:54
(UTC-05:00)

Transit 2A Rocket - Pass Details

Date: 05 December 2021
Orbit: 584 x 917 km, 66.7° (Epoch: 23 January)

Event Time Altitude Azimuth Distance (km) Brightness Sun altitude
Rises 17:45:19 0° 309° (NW) 3,526 8.9 -15.6°
Reaches altitude 10° 17:49:53 10° 278° (W) 2,526 8.7 -16.4°
Maximum altitude 17:51:37 11° 260° (W) 2,400 8.8 -16.7°
Drops below altitude 10° 17:53:20 10° 243° (WSW) 2,467 8.9 -17.0°
Sets 17:57:38 0° 211° (SSW) 3,311 9.0 -17.8°
